Total_Precipitation_Accumulation
0.75 0.71 0.79 0.61 0.48 0.42 0.45 0.45 0.45 0.43 0.41 0.41 0.42 0.44 0.42 0.42 0.42 0.46 0.56 0.72 0.75 0.79 0.86 0.99 1.06 1.01 0.94 0.89 0.88 0.80 0.70 0.70 0.78 0.80 0.78 0.87 0.98 1.22 1.51 1.43 1.40 0.98 0.86
0.55 0.51 0.65 0.54 0.38 0.38 0.38 0.40 0.37 0.37 0.39 0.40 0.41 0.43 0.45 0.50 0.52 0.56 0.63 0.80 0.81 0.87 0.92 1.00 0.99 0.86 0.84 0.77 0.70 0.64 0.61 0.70 0.81 0.88 0.83 0.78 0.98 1.30 1.49 1.44 1.50 0.91 0.80
0.37 0.38 0.43 0.49 0.39 0.33 0.34 0.37 0.38 0.41 0.40 0.38 0.39 0.43 0.48 0.62 0.70 0.71 0.78 0.96 1.04 1.02 0.95 0.94 0.80 0.70 0.70 0.60 0.56 0.55 0.59 0.73 0.86 1.08 1.16 0.87 0.75 1.27 1.45 1.35 1.04 0.69 0.70
0.27 0.32 0.33 0.39 0.40 0.35 0.33 0.35 0.37 0.39 0.39 0.41 0.47 0.50 0.52 0.59 0.64 0.69 0.81 0.97 1.04 0.95 0.83 0.69 0.61 0.54 0.51 0.42 0.43 0.48 0.59 0.76 1.02 1.41 1.55 1.15 0.66 1.03 1.28 1.12 0.86 0.69 0.67
0.27 0.28 0.37 0.41 0.41 0.37 0.31 0.34 0.36 0.39 0.41 0.43 0.49 0.52 0.54 0.57 0.60 0.61 0.65 0.79 0.80 0.69 0.59 0.54 0.53 0.44 0.38 0.32 0.36 0.47 0.60 0.78 1.04 1.41 1.35 1.28 1.09 1.06 1.08 1.02 0.88 0.84 0.78
0.33 0.31 0.37 0.42 0.40 0.41 0.36 0.33 0.37 0.39 0.44 0.47 0.55 0.57 0.55 0.61 0.63 0.60 0.59 0.67 0.66 0.59 0.50 0.53 0.53 0.44 0.36 0.33 0.36 0.43 0.56 0.83 1.02 0.92 0.95 1.09 0.98 1.00 1.00 1.07 1.03 0.94 0.83
0.53 0.48 0.47 0.50 0.49 0.46 0.38 0.34 0.35 0.39 0.47 0.51 0.57 0.58 0.56 0.59 0.60 0.57 0.57 0.57 0.52 0.49 0.47 0.50 0.51 0.43 0.44 0.45 0.43 0.45 0.62 0.87 0.91 0.79 0.83 1.16 1.00 0.82 1.00 1.19 1.25 1.09 0.87
0.63 0.63 0.59 0.60 0.58 0.55 0.46 0.42 0.43 0.44 0.47 0.51 0.54 0.53 0.54 0.56 0.56 0.55 0.54 0.49 0.40 0.37 0.41 0.49 0.53 0.47 0.47 0.53 0.48 0.49 0.62 0.78 0.68 0.70 0.71 0.82 0.73 0.77 0.97 1.19 1.27 1.17 0.98
0.78 0.74 0.68 0.66 0.59 0.60 0.58 0.53 0.54 0.55 0.54 0.53 0.54 0.53 0.53 0.54 0.55 0.53 0.51 0.45 0.40 0.38 0.39 0.45 0.48 0.46 0.44 0.49 0.54 0.59 0.71 0.88 0.84 0.83 0.68 0.77 0.72 0.87 1.07 1.24 1.32 1.26 1.19
1.17 0.95 0.81 0.82 0.80 0.72 0.69 0.63 0.64 0.61 0.59 0.61 0.58 0.60 0.62 0.63 0.59 0.58 0.54 0.51 0.50 0.49 0.45 0.44 0.48 0.46 0.48 0.47 0.54 0.72 0.95 0.91 0.73 0.82 0.87 0.72 0.76 1.05 1.33 1.36 1.43 1.45 1.41
1.55 1.31 1.08 0.97 0.94 0.88 0.78 0.71 0.82 0.83 0.81 0.80 0.80 0.80 0.79 0.88 0.83 0.78 0.68 0.72 0.70 0.70 0.71 0.69 0.73 0.68 0.65 0.58 0.70 0.96 1.02 0.85 0.88 1.04 1.04 0.81 0.96 1.29 1.56 1.59 1.58 1.59 1.60
1.74 1.42 1.33 1.20 1.08 1.01 0.84 0.90 1.21 1.12 1.05 1.11 1.17 1.06 1.17 1.24 1.20 0.89 0.92 1.12 1.22 1.28 1.23 1.31 1.44 1.18 1.00 1.05 1.52 1.59 1.01 0.93 1.11 1.16 1.13 1.02 1.28 1.67 1.85 1.91 1.87 1.73 1.68
2.01 1.65 1.53 1.41 1.32 1.34 1.42 1.25 1.35 1.41 1.43 1.42 1.40 1.39 1.43 1.24 1.13 1.11 1.27 1.51 1.66 1.71 1.68 1.96 2.04 1.60 1.67 2.00 2.10 1.85 1.31 1.26 1.39 1.30 1.43 1.48 1.53 1.95 2.35 2.37 2.30 2.06 1.88
2.29 1.97 1.77 1.66 1.66 1.71 1.66 1.58 1.46 1.49 1.48 1.53 1.60 1.57 1.67 1.78 1.71 1.75 1.87 1.87 2.01 2.15 2.42 2.49 2.64 2.28 2.26 2.11 1.96 1.88 1.72 1.80 1.71 1.88 2.22 2.02 1.76 2.02 2.67 2.80 2.71 2.47 2.07
2.46 2.16 2.11 1.87 1.77 1.83 1.93 1.97 1.77 1.86 1.80 1.78 1.89 1.96 2.00 2.20 2.24 2.27 2.24 2.23 2.07 2.24 2.47 2.84 2.80 3.01 2.97 2.64 2.23 2.06 2.06 2.12 2.05 2.18 2.44 2.47 2.29 2.33 3.01 3.38 3.27 2.97 2.54
2.42 2.26 2.21 2.09 2.11 2.19 2.16 2.19 2.25 2.27 2.28 2.19 2.13 2.15 2.21 2.43 2.67 2.68 2.58 2.54 2.32 2.33 2.65 2.91 2.97 3.43 3.28 3.14 2.63 2.39 2.22 2.19 2.19 2.32 2.54 2.74 2.68 2.62 2.99 3.43 3.64 3.55 3.18
2.21 2.31 2.46 2.59 2.77 2.82 2.78 2.72 2.66 2.69 2.63 2.63 2.75 2.73 2.76 2.74 2.81 2.73 2.74 2.63 2.64 2.69 2.84 2.90 3.06 3.45 3.22 3.14 2.97 2.71 2.48 2.32 2.21 2.36 2.69 3.02 2.75 2.66 2.95 3.35 3.71 3.66 3.48
2.24 2.36 2.59 2.69 3.04 3.21 3.23 3.28 3.21 3.13 3.00 3.07 3.08 3.09 3.05 2.98 2.86 2.94 2.77 2.62 2.79 2.87 3.02 3.22 3.21 3.31 3.40 3.40 3.24 2.88 2.70 2.61 2.26 2.34 2.51 2.70 2.91 2.49 2.83 3.36 3.56 3.36 3.35
2.60 2.85 3.17 3.23 3.17 3.26 3.45 3.57 3.36 3.28 3.15 3.05 2.97 3.01 2.89 2.76 2.77 3.10 2.95 2.97 3.06 3.24 3.12 2.90 3.33 3.44 3.45 3.44 3.04 2.93 2.55 2.49 2.38 2.30 2.41 2.48 2.70 2.66 2.70 2.75 3.16 3.04 3.25
2.94 3.29 3.45 3.52 3.71 3.99 4.17 4.06 3.82 3.40 3.10 2.97 2.88 2.78 2.69 2.74 2.75 3.06 2.86 2.90 3.12 3.43 3.49 3.44 3.59 3.48 3.34 3.40 2.92 2.78 2.45 2.17 2.15 2.12 1.99 2.21 2.32 2.09 2.23 2.42 2.79 2.38 2.57
2.95 3.18 3.46 3.88 4.23 4.31 4.12 4.03 3.94 3.62 3.32 2.99 2.68 2.59 2.69 2.61 2.71 3.01 2.78 3.11 3.19 3.35 3.51 3.49 3.63 3.52 3.30 3.40 3.30 2.84 2.32 2.00 1.89 1.75 1.79 1.94 1.88 1.93 2.22 2.58 2.84 2.79 2.43
2.77 3.06 3.47 3.89 4.22 4.12 4.19 4.37 4.30 4.06 3.41 3.04 2.85 2.74 2.66 2.63 2.64 2.73 3.12 3.12 3.22 3.39 3.42 3.32 3.36 3.20 2.96 3.23 3.36 3.21 2.60 2.25 1.86 1.50 1.68 1.68 1.80 2.05 2.10 2.13 2.46 2.79 2.66
2.81 3.22 3.48 3.75 3.91 3.95 4.11 4.24 3.97 3.75 3.25 3.06 3.07 2.89 2.74 2.77 2.77 2.88 3.08 3.16 3.15 3.03 3.16 3.30 3.13 3.03 2.91 2.96 3.14 3.21 2.78 2.33 1.91 1.59 1.49 1.52 1.85 2.06 2.01 1.99 1.95 2.13 2.23
2.75 3.25 3.67 3.69 3.72 3.66 3.80 3.88 3.68 3.33 3.06 2.96 2.96 2.72 2.62 2.56 2.56 2.66 2.73 2.89 2.96 2.89 2.97 2.88 2.88 2.94 2.93 2.75 2.87 2.86 2.72 2.53 2.33 1.88 1.50 1.45 1.66 1.79 1.78 1.65 1.74 1.99 2.11
2.46 2.85 3.24 3.54 3.61 3.48 3.45 3.47 3.56 3.35 3.05 2.84 2.74 2.61 2.54 2.53 2.35 2.30 2.43 2.61 2.64 2.54 2.52 2.68 2.93 2.88 2.75 2.61 2.67 2.72 2.84 2.77 2.48 2.17 1.76 1.60 1.52 1.40 1.50 1.53 1.59 1.68 1.90
2.31 2.63 2.86 3.09 3.14 3.10 3.01 3.02 3.11 3.12 3.05 2.77 2.55 2.52 2.51 2.41 2.24 2.14 2.15 2.27 2.32 2.31 2.28 2.32 2.45 2.51 2.51 2.61 2.63 2.57 2.70 2.67 2.55 2.42 2.02 1.75 1.60 1.27 1.29 1.36 1.48 1.56 1.67